Location: Krakow
(50.0830°N, 19.9170°E)
Time: 01:30:51
(UTC+02:00)

ISS - Visible Passes

Search period start: 13 July 2024 00:00
Search period end: 23 July 2024 00:00
Orbit: 410 x 424 km, 51.6° (Epoch: 12 July)

Date Brightness Start Highest point End Pass type
(mag) Time Alt. Az. Time Alt. Az. Time Alt. Az.
13 Jul -3.7 00:40:49 10° WNW 00:44:09 77° N 00:47:29 10° E visible
13 Jul -3.2 02:17:41 10° W 02:20:35 35° SW 02:20:35 35° SW visible
13 Jul -3.7 22:15:42 10° WSW 22:19:00 81° NNW 22:22:21 10° ENE visible
13 Jul -3.5 23:52:37 10° WNW 23:55:56 68° N 23:59:13 10° E visible
14 Jul -3.3 01:29:25 10° WNW 01:32:02 42° WSW 01:32:02 42° WSW visible
14 Jul -3.8 21:27:29 10° WSW 21:30:48 81° SSE 21:34:08 10° ENE visible
14 Jul -3.4 23:04:22 10° W 23:07:41 64° N 23:11:00 10° E visible
15 Jul -3.9 00:41:12 10° WNW 00:44:30 69° SSW 00:44:33 69° SSW visible
15 Jul -3.4 22:16:05 10° W 22:19:24 65° N 22:22:42 10° E visible
15 Jul -3.9 23:52:57 10° WNW 23:56:17 89° SSW 23:57:22 40° ESE visible
16 Jul -1.2 01:29:57 10° W 01:30:13 11° W 01:30:13 11° W visible
16 Jul -3.5 21:27:47 10° W 21:31:06 71° N 21:34:25 10° ENE visible
16 Jul -3.7 23:04:41 10° WNW 23:08:01 76° NNE 23:10:20 18° E visible
17 Jul -2.2 00:41:33 10° W 00:43:12 24° W 00:43:12 24° W visible
17 Jul -3.5 22:16:23 10° WNW 22:19:42 67° N 22:23:01 10° E visible
17 Jul -3.6 23:53:11 10° WNW 23:56:14 51° SW 23:56:14 51° SW visible
18 Jul -3.3 21:28:02 10° W 21:31:21 64° N 21:34:40 10° E visible
18 Jul -3.9 23:04:52 10° WNW 23:08:11 71° SSW 23:09:19 37° SE visible
19 Jul -1.1 00:42:10 10° W 00:42:12 10° W 00:42:12 10° W visible
19 Jul -3.8 22:16:32 10° WNW 22:19:52 89° NNE 22:22:27 16° ESE visible
19 Jul -2.1 23:53:31 10° W 23:55:19 22° WSW 23:55:19 22° WSW visible
20 Jul -3.6 21:28:10 10° WNW 21:31:30 75° N 21:34:50 10° E visible
20 Jul -3.2 23:05:01 10° W 23:08:08 38° SSW 23:08:28 37° SSW visible
21 Jul -3.6 22:16:35 10° WNW 22:19:50 54° SSW 22:21:38 23° SE visible
22 Jul -3.8 21:28:10 10° WNW 21:31:29 74° SSW 21:34:48 10° ESE visible
22 Jul -2.0 23:05:25 10° W 23:07:42 19° SW 23:07:42 19° SW visible
